Regional Weather Roundup
Issued by NWS Newport/Morehead, NC

Current Version | Previous Version | Text Only | Print | Product List | Glossary Off
Versions: 1 2 3 4 5 6 7 8 9 10 11 12 13 14 15 16 17 18 19 20 21 22 23 24 25 26 27 28 29 30 31 32 33 34 35 36 37 38 39 40 41 42 43 44 45 46 47 48 49 50
000 ASUS42 KMHX 311122 RWRMHX WEATHER ROUNDUP FOR EASTERN NORTH CAROLINA NATIONAL WEATHER SERVICE NEWPORT/MOREHEAD CITY NC 700 AM EDT THU JUL 31 2014 NOTE: "FAIR" INDICATES FEW OR NO CLOUDS BELOW 12,000 FEET WITH NO SIGNIFICANT WEATHER AND/OR OBSTRUCTIONS TO VISIBILITY NCZ015>017-031-032-045>047-102-103-311200- NORTH COAST CITY SKY/WX TMP DP RH WIND PRES REMARKS EDENTON MOCLDY 66 64 93 CALM 30.12R ELIZABETH CITY PTCLDY 65 63 93 CALM 30.12R KITTY HAWK PTSUNNY 71 64 78 CALM 30.11R MANTEO NOT AVBL $$ NCZ045>047-081-094-103-104-311200- CENTRAL COAST CITY SKY/WX TMP DP RH WIND PRES REMARKS FRISCO CLEAR 74 65 73 NE6 30.10R SWANQUARTER N/A 68 N/A N/A NE5 30.09R $$ NCZ095-097-098-100-101-311200- SOUTHERN COAST CITY SKY/WX TMP DP RH WIND PRES REMARKS BEAUFORT PTCLDY 71 68 90 NE5 30.09R CEDAR ISLAND N/A 79 N/A N/A NE12 30.15R JACKSONVILLE MOCLDY 73 67 81 CALM 30.08R NEWPORT NOT AVBL PINEY ISLAND SUNNY 79 69 71 E8 30.09R WILMINGTON CLOUDY 71 68 90 NE3 30.07R $$ NCZ011>013-027>030-043-044-078>080-089-090>093-098-311200- COASTAL PLAIN CITY SKY/WX TMP DP RH WIND PRES REMARKS AHOSKIE PTCLDY 62 61 94 CALM 30.12R CLINTON CLOUDY 71 68 90 CALM 30.09S ELIZABETHTOWN MOCLDY 68 67 97 CALM 30.09R GOLDSBORO CLOUDY 69 69 98 NE1 30.08S GREENVILLE CLOUDY 64 64 100 N3 30.13R HAVELOCK PTCLDY 71 66 84 SE3 30.10R KENANSVILLE CLOUDY 68 66 92 CALM 30.11R KINSTON CLOUDY 68 66 94 N3 30.11S NEW BERN PTCLDY 71 67 87 CALM 30.11R RICHLANDS MOCLDY 68 64 88 CALM 30.10S ROANOKE RAPIDS NOT AVBL ROCKY MOUNT CLOUDY 67 64 90 NE3 30.11R WASHINGTON MOCLDY 65 63 93 CALM 30.12R WHITEVILLE CLOUDY 69 66 93 CALM 30.08R $$ AMZ130-135-150-152-154-156-158-170-250-252-270-ANZ085-086-088-633-658-670-311200- MARINE OBSERVATIONS STATION/POSITION TIME TEMP WIND PRES WAVE SWELL AIR SEA DIR/SP/G HT/PER HT/PER (UTC) (F) (DEG/KT/KT) (MB) (FT/S) (FT/S) CHESAPEAKE LIGHT NOT AVBL BUOY 44014 1100 76 77 110/ 2/ 4 1019.5 2/ 8 2/ 8 DUCK 1100 76 76 120/ 3/ 4 1019.1 2E DUCK 1100 N/A 2/ 8 OREGON INLET 1100 75 79 70/ 4/ 5 1019.7 BUOY 44095 1100 78 N/A 3/ 7 20E OREGON INLET NOT AVBL HATTERAS CG 1100 76 79 60/ 3/ 3 1019.7 DIAMOND BUOY 1100 VRB 8/ 10 1018.9 3/ 7 3/ 7 CAPE LOOKOUT 1100 79 80/ 11/ 12 1018.7 BEAUFORT LAB 1100 72 81 20/ 4/ 6 1018.3 30 SE NEW RIVER 1100 80 81 80/ 12/ 14 1018.5 3/ 6 3/ 6 5 SE WRIGHTSVILL 1100 76 81 90/ 14/ 16 N/A BUOY 41002 1012 80 80 60/ 4/ 6 1017.6 4/ 5 3/ 5 BUOY 41004 1100 81 83 70/ 14/ 16 1015.6 3/ 6 2/ 7 $$

USA.gov is the U.S. government's official web portal to all federal, state and local government web resources and services.